Regional Weather Roundup
Issued by NWS

Home | Current Version | Previous Version | Graphics & Text | Print | Product List | Glossary On
Versions: 1 2 3 4 5 6 7 8 9 10 11 12 13 14 15 16 17 18 19 20 21 22 23 24 25 26 27
000
ASUS45 KBOU 241607
RWRCO

WEATHER ROUNDUP FOR COLORADO
NATIONAL WEATHER SERVICE DENVER/BOULDER CO
1000 AM MDT TUE MAY 24 2016

NOTE: "FAIR" INDICATES FEW OR NO CLOUDS BELOW 12000 FEET WITH NO
SIGNIFICANT WEATHER AND/OR OBSTRUCTIONS TO VISIBILITY.

COZ001>005-013-030-031-241700-
...NORTHWEST COLORADO...

CITY           SKY/WX    TMP DP  RH WIND       PRES   REMARKS
CRAIG          FAIR      59  32  36 CALM      29.92F
HAYDEN         FAIR      57  30  35 E5        29.93S
MEEKER         FAIR      60  24  25 S12       29.94R
MOUNT WERNER   NOT AVBL
STEAMBOAT SPGS FAIR      56  32  40 CALM      29.95S
WALDEN         FAIR      54  28  37 S10       30.03F
$$

COZ006>008-011-241700-
...WEST CENTRAL VALLEYS...

CITY           SKY/WX    TMP DP  RH WIND       PRES   REMARKS
GRAND JUNCTION FAIR      65  24  21 SE8       29.88F
MONTROSE       FAIR      67  20  16 CALM      29.95F
EAGLE          NOT AVBL
RIFLE          FAIR      62  28  27 NW6       29.91F
DELTA          FAIR      70  18  13 N6        29.92F
NUCLA          FAIR      64  21  19 SW9G21    30.00S
$$

COZ017>023-064>068-241700-
...SOUTHWEST COLORADO...

CITY           SKY/WX    TMP DP  RH WIND       PRES   REMARKS
DURANGO        FAIR      60  22  23 E9        30.06S
CORTEZ         FAIR      66  24  20 S16       30.00S
PAGOSA SPRINGS FAIR      56  16  20 S6        30.11R
TELLURIDE      FAIR      53  16  23 S13G24    30.12S
WOLF CREEK PAS FAIR      36  14  41 SW30G39   30.26S
$$

COZ009-010-012-014-032>034-037-058>063-241700-
...CENTRAL COLORADO...

CITY           SKY/WX    TMP DP  RH WIND       PRES   REMARKS
ASPEN          FAIR      60  15  17 S15G21    30.00S
BUENA VISTA    FAIR      57  20  23 E5        30.05S
COPPER MTN     NOT AVBL
BERTHOUD PASS  FAIR      34  27  75 SE13      30.25S WCI  25
COTTONWOOD PAS FAIR      54  18  24 E7G17     30.13S
GUNNISON       FAIR      50  21  32 CALM      30.07F
KREMMLING      FAIR      54  27  35 S3        30.03F
LEADVILLE      FAIR      50   8  18 S10G20    30.10S
MONARCH PASS   FAIR      39  14  35 SW25G32   30.33R
SALIDA         FAIR      60  25  26 E9        30.10F
SUNLIGHT       FAIR      45  19  36 CALM      30.16S
WILKERSON PASS FAIR      48  19  32 SW3       30.24S
$$

COZ069>075-241700-
...SAN LUIS VALLEY/SANGRE DE CRISTO MOUNTAINS...

CITY           SKY/WX    TMP DP  RH WIND       PRES   REMARKS
ALAMOSA        FAIR      62  20  19 VRB5      30.06S
LA VETA PASS   FAIR      52  21  30 S10G21    30.20R
SAGUACHE       FAIR      54  27  35 SE7       30.09S
$$

COZ035-036-038>040-241700-
...NORTHERN COLORADO FRONT RANGE...

CITY           SKY/WX    TMP DP  RH WIND       PRES   REMARKS
DENVER INTL AP FAIR      63  45  51 SE17      29.97F
DMNS CITY PARK   N/A     63  46  52 E18       29.97F
AURORA         MOSUNNY   63  46  52 SE16      29.99S
FRONT RANGE AP MOSUNNY   61  45  55 SE20G26   29.99S
ERIE MUNI ARPT CLOUDY    61  46  56 S5        29.98F
BOULDER MUN AP FAIR      59  45  58 NE5       29.98F
CENTENNIAL     PTSUNNY   62  44  51 SE13      29.99F
BROOMFIELD     PTSUNNY   59  45  58 SE8       30.00S
FORT COLLINS   FAIR      57  46  67 S7        29.99F
LONGMONT       FAIR      64  45  51 S3        30.00S
$$

COZ041-046-047-076>085-087-088-241700-
...PIKES PEAK/PALMER DIVIDE AND SOUTHERN FOOTHILLS...

CITY           SKY/WX    TMP DP  RH WIND       PRES   REMARKS
COLO. SPRINGS  FAIR      62  43  49 VRB3      30.02F
A. F. ACADEMY  FAIR      59  45  58 S6        30.02F
SCHRIEVER AFB  NOT AVBL
ELLICOTT       FAIR     N/A N/A N/A E9        30.00
FALCON         FAIR      60  43  53 SE8       30.06S
FORT CARSON    FAIR      62  46  56 E5        30.00F
LIMON          FAIR      63  51  65 E20G29    29.98S
MONUMENT HILL  PTSUNNY   55  43  62 SE12G17   30.06S
TRINIDAD       FAIR      62  46  55 VRB6      30.00S
$$

COZ042>045-048>051-090-091-241700-
...NORTHEAST COLORADO...

CITY           SKY/WX    TMP DP  RH WIND       PRES   REMARKS
GREELEY ARPT   FAIR      63  48  59 S8        29.99S
AKRON          FAIR      63  49  60 SE18G25   29.96S
BURLINGTON     CLOUDY    61  54  77 E18       29.95S
WRAY           FAIR      68  54  60 SE14      29.95S
STERLING       PTSUNNY   64  52  63 S6        29.94S
HOLYOKE        FAIR      72  52  49 SE9       29.95S
FORT MORGAN    FAIR      64  45  50 E7        29.98R
$$

COZ086-089-092>099-241700-
...SOUTHEAST COLORADO...

CITY           SKY/WX    TMP DP  RH WIND       PRES   REMARKS
PUEBLO         FAIR      65  46  50 SE5       29.96F
LA JUNTA       FAIR      67  48  50 E5        29.93S
LAMAR          CLOUDY    64  58  80 VRB3      29.89R
SPRINGFIELD      N/A     68  54  60 N8G18     29.92F
$$




USA.gov is the U.S. government's official web portal to all federal, state and local government web resources and services.